[[{"header":{"parameterUnit":"m.s-1","parameterCategory":2,"la1":30.2991,"la2":30.254,"lo1":-89.0895,"lo2":-89.0444,"dy":0.0017,"dx":0.0017,"nx":28,"ny":28,"refTime":"2024-09-02T03:00:00:Z","depth":"0","parameterNumber":2,"parameterNumberName":"U-component_of_CURRENTS"},"data":[0,0,0,0,0,0,0,0,0,0,0,0,0,0,0,0,0,0,0,0,0,0,0,0,0,0,0,0,0,0,0,0,0,0,0,0,0,0,0,0,0,0,0,0,0,0,0,0,0,0,0,0,0,0,0,0,0,0,0.4102,0.4102,0,0.3987,0.3984,0.3981,0.3839,0.3838,0.3838,0.3837,0.367,0.3666,0.3663,0,0,0,0,0,0,0,0,0,0,0,0,0,0.41,0.41,0.4102,0.4102,0.4102,0.3987,0.3984,0.3981,0.3839,0.3838,0.3837,0.3836,0.3671,0.3667,0.3662,0,0,0,0,0,0,0,0,0,0,0,0,0,0.404,0.41,0.4102,0.4029,0.4022,0.3988,0.3984,0.398,0.3839,0.3838,0.3837,0.3836,0.3672,0.3667,0.3662,0.3652,0,0,0.3645,0.3642,0,0,0,0,0,0,0,0,0.4044,0.4038,0.404,0.4034,0.4027,0.394,0.3923,0.3873,0.384,0.3892,0.3837,0.3835,0.3766,0.3753,0.3713,0.3644,0.3637,0.3644,0.3641,0.3638,0.3637,0,0,0,0,0,0,0,0.4048,0.4042,0.404,0.404,0.4032,0.3969,0.3958,0.3911,0.3825,0.3888,0.3881,0.3893,0.376,0.3718,0.3708,0.3635,0.3644,0.3639,0.3636,0.3634,0.3621,0.3624,0,0,0,0,0,0,0.41,0.4047,0.4044,0.4039,0.405,0.3972,0.3959,0.3956,0.3826,0.381,0.3895,0.3888,0.3728,0.3714,0.3702,0.3766,0.3639,0.3633,0.363,0.3618,0.3622,0.3625,0,0,0,0,0,0,0.41,0.4101,0.4049,0.4053,0.4044,0.3975,0.3972,0.3955,0.393,0.3835,0.3814,0.3892,0.3727,0.3709,0.3687,0.3755,0.3631,0.3626,0.3615,0.362,0.3624,0.3842,0,0,0,0,0,0,0.41,0.4101,0.4104,0.4056,0.4046,0.4055,0.3974,0.3954,0.3946,0.3935,0.3826,0.3807,0.3724,0.3696,0.3682,0.3745,0.3622,0.3611,0.3617,0.3622,0.3831,0.3853,0.3872,0,0,0,0,0,0.41,0.4103,0.4104,0.4104,0.4056,0.4058,0.4046,0.3981,0.3949,0.395,0.3883,0.3812,0.3722,0.3694,0.3676,0.374,0.3608,0.3615,0.3622,0.3822,0.3849,0.3872,0,0,0,0,0,0,0.4081,0.409,0.4088,0.4088,0.4097,0.4041,0.4031,0.4008,0.3952,0.394,0.3838,0.3817,0.3834,0.3756,0.3728,0.3755,0.3659,0.3662,0.3817,0.3841,0.3862,0.388,0.3617,0,0,0,0,0,0.4095,0.4105,0.4115,0.4116,0.413,0.4093,0.4083,0.406,0.4019,0.399,0.3931,0.387,0.3845,0.3818,0.3778,0.378,0.3755,0.3813,0.3834,0.3852,0.3856,0.3899,0.3924,0.3647,0.3647,0.3647,0,0,0.4091,0.4097,0.4102,0.4117,0.4105,0.4131,0.4078,0.4089,0.4108,0.3986,0.3981,0.3948,0.3867,0.3879,0.3879,0.382,0.3925,0.386,0.3876,0.3871,0.3909,0.3936,0.396,0.3652,0.3651,0.365,0,0,0.4087,0.41,0.4111,0.4138,0.4167,0.4163,0.4189,0.4177,0.4167,0.418,0.4114,0.413,0.4057,0.4035,0.4007,0.412,0.4047,0.4106,0.4208,0.4252,0.4275,0.4295,0.4334,0.4355,0.4101,0.4101,0.4102,0,0.4074,0.4094,0.4116,0.4145,0.417,0.4195,0.4224,0.4236,0.4221,0.4229,0.4208,0.418,0.4138,0.416,0.4208,0.4171,0.417,0.4122,0.4281,0.43,0.4317,0.4351,0.4372,0.4113,0.4111,0.411,0.4109,0,0.4084,0.4114,0.413,0.4182,0.4218,0.4253,0.4307,0.4345,0.436,0.4364,0.4414,0.4381,0.4353,0.4375,0.4323,0.4425,0.4381,0.4321,0.4224,0.4359,0.4386,0.4404,0.4129,0.4125,0.4121,0.4119,0,0,0.3996,0.4112,0.4113,0.4161,0.4244,0.4276,0.4353,0.4414,0.4448,0.4498,0.4534,0.4573,0.4569,0.4541,0.4511,0.4566,0.4723,0.4505,0.4502,0.4554,0.4823,0.4753,0.4765,0.4688,0.4692,0.4695,0.4807,0,0.3985,0.4057,0.4114,0.4197,0.4247,0.4325,0.4379,0.4453,0.4502,0.4555,0.4606,0.4623,0.4626,0.4622,0.4699,0.469,0.4774,0.4698,0.4672,0.4672,0.4602,0.4785,0.4487,0.4558,0.4824,0.4827,0.4829,0,0.3944,0.4017,0.4083,0.4216,0.4241,0.4288,0.4392,0.4456,0.4557,0.4591,0.4666,0.4681,0.4783,0.476,0.488,0.4826,0.4862,0.4877,0.4879,0.4743,0.4636,0.4457,0.4579,0.4407,0.4855,0.4853,0.4851,0,0.3853,0.3982,0.4037,0.4083,0.4232,0.4269,0.4347,0.4447,0.4498,0.4614,0.465,0.4758,0.4806,0.4884,0.4963,0.4914,0.5097,0.5007,0.4994,0.4988,0.4692,0.4654,0.4644,0.5133,0.5133,0.5133,0.5132,0,0.3795,0.3845,0.4001,0.4038,0.4104,0.4225,0.428,0.4372,0.448,0.4544,0.4656,0.472,0.4845,0.4957,0.5008,0.5082,0.5138,0.5059,0.5031,0.4762,0.4731,0.4525,0.4482,0.5137,0.5136,0.5135,0.5135,0,0.3669,0.3768,0.3851,0.4013,0.4055,0.4103,0.4241,0.4293,0.4403,0.4496,0.4535,0.4715,0.4862,0.4996,0.5132,0.5122,0.5029,0.5211,0.49,0.4835,0.4588,0.4568,0.4422,0.4311,0.5169,0.5168,0.5167,0,0.3611,0.3636,0.38,0.3856,0.3922,0.4016,0.4072,0.4221,0.4284,0.4483,0.4523,0.4716,0.4842,0.5042,0.5071,0.5164,0.5028,0.4915,0.4771,0.4585,0.4541,0.4395,0.4301,0.4474,0.4467,0.4462,0.4458,0,0.3511,0.3553,0.3634,0.3752,0.3826,0.3914,0.402,0.4059,0.4238,0.4311,0.4469,0.4592,0.48,0.4773,0.4905,0.4901,0.4612,0.481,0.4677,0.4076,0.385,0.3721,0.4407,0.4412,0.4417,0.442,0.4423,0.4425,0.3416,0.3439,0.3547,0.3648,0.3741,0.3823,0.3831,0.3947,0.4024,0.4101,0.431,0.4382,0.4419,0.4555,0.4549,0.4268,0.4373,0.4045,0.4066,0.3958,0.3752,0.437,0.4305,0.4308,0.4312,0.4315,0.4317,0,0.3303,0.3364,0.3456,0.3562,0.3612,0.3708,0.3793,0.3762,0.3786,0.39,0.3977,0.3957,0.3873,0.3878,0.3683,0.3516,0.3353,0.339,0.3073,0.3046,0.3615,0.3483,0.3161,0.3161,0.3161,0.3161,0.3161,0.3162,0.3245,0.3286,0.3348,0.3412,0.3479,0.3459,0.3472,0.3446,0.3484,0.3417,0.3372,0.3421,0.343,0.3241,0.296,0.2879,0.2681,0.2529,0.2654,0.299,0.3049,0.3105,0.2968,0.2543,0.2543,0.1846,0.184,0.1836]},{"header":{"parameterUnit":"m.s-1","parameterCategory":2,"la1":30.2991,"la2":30.254,"lo1":-89.0895,"lo2":-89.0444,"dy":0.0017,"dx":0.0017,"nx":28,"ny":28,"refTime":"2024-09-02T03:00:00:Z","depth":"0","parameterNumber":3,"parameterNumberName":"V-component_of_CURRENTS"},"data":[0,0,0,0,0,0,0,0,0,0,0,0,0,0,0,0,0,0,0,0,0,0,0,0,0,0,0,0,0,0,0,0,0,0,0,0,0,0,0,0,0,0,0,0,0,0,0,0,0,0,0,0,0,0,0,0,0,0,-0.0086,-0.0086,0,-0.0096,-0.0096,-0.0096,-0.0087,-0.0087,-0.0087,-0.0086,-0.0119,-0.012,-0.0122,0,0,0,0,0,0,0,0,0,0,0,0,0,-0.0082,-0.0082,-0.0086,-0.0086,-0.0086,-0.0096,-0.0096,-0.0096,-0.0087,-0.0087,-0.0086,-0.0086,-0.0119,-0.012,-0.0122,0,0,0,0,0,0,0,0,0,0,0,0,0,-0.0086,-0.0082,-0.0085,-0.0083,-0.0083,-0.0096,-0.0096,-0.0096,-0.0087,-0.0087,-0.0086,-0.0086,-0.0118,-0.012,-0.0122,-0.0141,0,0,-0.0127,-0.0128,0,0,0,0,0,0,0,0,-0.0086,-0.0086,-0.0084,-0.0084,-0.0084,-0.0091,-0.0107,-0.0113,-0.0087,-0.0085,-0.0086,-0.0086,-0.0113,-0.0115,-0.0116,-0.0142,-0.0144,-0.0127,-0.0128,-0.0129,-0.0129,0,0,0,0,0,0,0,-0.0086,-0.0086,-0.0089,-0.0084,-0.0084,-0.0091,-0.009,-0.0108,-0.0101,-0.0085,-0.0084,-0.0088,-0.0113,-0.0114,-0.0117,-0.0144,-0.0127,-0.0129,-0.013,-0.013,-0.0159,-0.0159,0,0,0,0,0,0,-0.0086,-0.0085,-0.0088,-0.0089,-0.0085,-0.0091,-0.0091,-0.0088,-0.01,-0.0101,-0.0088,-0.0087,-0.0112,-0.0115,-0.0118,-0.0114,-0.0129,-0.0131,-0.0132,-0.0159,-0.0159,-0.0159,0,0,0,0,0,0,-0.0085,-0.0086,-0.0088,-0.0089,-0.009,-0.0091,-0.0089,-0.0089,-0.0089,-0.0102,-0.0104,-0.0088,-0.0111,-0.0116,-0.0122,-0.0117,-0.0131,-0.0133,-0.016,-0.0159,-0.0159,-0.0124,0,0,0,0,0,0,-0.0085,-0.0085,-0.0085,-0.0089,-0.009,-0.0091,-0.0089,-0.0089,-0.0092,-0.0091,-0.0103,-0.0106,-0.0111,-0.0119,-0.0123,-0.0119,-0.0134,-0.016,-0.0159,-0.0159,-0.0126,-0.0123,-0.012,0,0,0,0,0,-0.0085,-0.0086,-0.0085,-0.0086,-0.0088,-0.0092,-0.0093,-0.0092,-0.0092,-0.0091,-0.0093,-0.0105,-0.0119,-0.012,-0.0126,-0.0122,-0.016,-0.0159,-0.0159,-0.0127,-0.0123,-0.012,0,0,0,0,0,0,-0.0086,-0.0085,-0.0084,-0.0085,-0.0087,-0.009,-0.0093,-0.0094,-0.0095,-0.0094,-0.0104,-0.0106,-0.0109,-0.0122,-0.0123,-0.0128,-0.0141,-0.0142,-0.0115,-0.0112,-0.0109,-0.0091,-0.0136,0,0,0,0,0,-0.0087,-0.0085,-0.0086,-0.0088,-0.0088,-0.0091,-0.0094,-0.0092,-0.0095,-0.0095,-0.0102,-0.0109,-0.0112,-0.0117,-0.0125,-0.0132,-0.012,-0.0133,-0.013,-0.0127,-0.0116,-0.008,-0.0072,-0.0157,-0.0157,-0.0157,0,0,-0.009,-0.0088,-0.0089,-0.0088,-0.009,-0.0084,-0.0091,-0.0093,-0.0085,-0.01,-0.0095,-0.0103,-0.0112,-0.0111,-0.0114,-0.0121,-0.0099,-0.0127,-0.0124,-0.0114,-0.0079,-0.007,-0.0063,-0.0156,-0.0156,-0.0156,0,0,-0.0086,-0.0092,-0.0084,-0.0084,-0.0084,-0.0084,-0.0084,-0.0086,-0.0083,-0.0081,-0.0085,-0.0083,-0.01,-0.0093,-0.0095,-0.0084,-0.0085,-0.0097,-0.0068,-0.0034,-0.0026,-0.0019,0.0003,0.0011,-0.0095,-0.0095,-0.0095,0,-0.0086,-0.0075,-0.0084,-0.0073,-0.0072,-0.0081,-0.007,-0.007,-0.0072,-0.0066,-0.0074,-0.0073,-0.0084,-0.0068,-0.0061,-0.0076,-0.0061,-0.0079,-0.0028,-0.0021,-0.0014,0.0006,0.0016,-0.0094,-0.0094,-0.0094,-0.0094,0,-0.0066,-0.0063,-0.0061,-0.0046,-0.0048,-0.0043,-0.0044,-0.0043,-0.0044,-0.0039,-0.0028,-0.0035,-0.0028,-0.0037,-0.0045,-0.0011,-0.0017,-0.0027,-0.0032,-0.0003,0.0016,0.0025,-0.0091,-0.0092,-0.0092,-0.0093,0,0,-0.0033,-0.0044,-0.0039,-0.0032,-0.0033,-0.0027,-0.002,-0.0007,0.0012,0.0004,0.0035,0.0026,0.0025,0.0024,0.0012,0.0037,0.0091,0.0026,0.0027,0.0055,0.0163,0.015,0.0159,0.0093,0.0094,0.0096,0.0157,0,-0.0005,0.0014,0.0,0.0019,0.0031,0.0015,0.0029,0.0035,0.004,0.0065,0.0061,0.0083,0.0047,0.006,0.0077,0.0094,0.0117,0.0075,0.0124,0.0126,0.0118,0.017,0.0195,0.0252,0.0165,0.0167,0.0168,0,0.0042,0.0045,0.0066,0.0061,0.0066,0.0076,0.0098,0.0102,0.0122,0.0133,0.0145,0.0144,0.0174,0.0144,0.0188,0.0164,0.0168,0.0175,0.0177,0.0163,0.0131,0.0209,0.0271,0.0126,0.0182,0.0181,0.018,0,0.0102,0.0098,0.0115,0.0115,0.011,0.012,0.0117,0.0131,0.0157,0.0182,0.0225,0.0229,0.027,0.0267,0.0271,0.0239,0.0328,0.0284,0.0273,0.0271,0.0303,0.0301,0.0241,0.0324,0.0324,0.0323,0.0323,0,0.0154,0.0171,0.0144,0.016,0.0194,0.0161,0.0209,0.0209,0.0234,0.0304,0.0268,0.0348,0.031,0.0347,0.0316,0.0336,0.0366,0.0298,0.0297,0.0312,0.0311,0.0192,0.0106,0.0326,0.0325,0.0325,0.0324,0,0.0232,0.0208,0.0235,0.0225,0.023,0.0254,0.0275,0.031,0.0321,0.0416,0.0436,0.0467,0.0527,0.048,0.05,0.0421,0.0357,0.0414,0.0426,0.0424,0.0241,0.0157,0.0132,0.0076,0.0402,0.0402,0.0402,0,0.0275,0.0297,0.0303,0.0326,0.0326,0.0353,0.0384,0.0374,0.0426,0.0518,0.0589,0.0649,0.0758,0.0744,0.0631,0.057,0.0424,0.0483,0.0416,0.0252,0.0158,0.0099,0.0049,0.0471,0.0471,0.0472,0.0472,0,0.0365,0.0367,0.038,0.0427,0.0458,0.0502,0.0544,0.0603,0.0627,0.0739,0.0897,0.0984,0.0967,0.0934,0.0782,0.0704,0.0375,0.0491,0.0337,0.0224,0.0146,0.0086,0.0389,0.0478,0.0477,0.0477,0.0477,0.0476,0.0438,0.0465,0.0482,0.0527,0.0571,0.065,0.0717,0.08,0.0931,0.1117,0.1162,0.1368,0.1183,0.1013,0.0831,0.046,0.0458,0.0332,0.0252,0.0213,0.0133,0.0433,0.0502,0.0502,0.0501,0.0501,0.0501,0,0.052,0.0534,0.0581,0.0635,0.071,0.0712,0.0827,0.0924,0.1128,0.1352,0.1533,0.1629,0.1387,0.1063,0.0567,0.0272,0.0158,0.0095,0.001,-0.0025,0.027,0.0242,0.0239,0.0239,0.0239,0.0239,0.024,0.024,0.0559,0.0608,0.0617,0.0742,0.0797,0.0915,0.0995,0.1168,0.1354,0.1682,0.1886,0.2004,0.1747,0.0794,0.0138,-0.0015,-0.0237,-0.0258,-0.0383,-0.0212,-0.0197,-0.0183,-0.0231,-0.0333,-0.0334,-0.063,-0.0634,-0.0636]}],[{"header":{"parameterUnit":"m.s-1","parameterCategory":2,"la1":30.2991,"la2":30.254,"lo1":-89.0895,"lo2":-89.0444,"dy":0.0017,"dx":0.0017,"nx":28,"ny":28,"refTime":"2024-09-02T03:00:00:Z","depth":"2","parameterNumber":2,"parameterNumberName":"U-component_of_CURRENTS"},"data":[0,0,0,0,0,0,0,0,0,0,0,0,0,0,0,0,0,0,0,0,0,0,0,0,0,0,0,0,0,0,0,0,0,0,0,0,0,0,0,0,0,0,0,0,0,0,0,0,0,0,0,0,0,0,0,0,0,0,0.2663,0.2663,0,0.261,0.2609,0.2608,0.2573,0.2573,0.2573,0.2574,0.2551,0.255,0.2549,0,0,0,0,0,0,0,0,0,0,0,0,0,0.2644,0.2644,0.2663,0.2663,0.2663,0.261,0.2609,0.2608,0.2572,0.2573,0.2573,0.2574,0.2551,0.255,0.2549,0,0,0,0,0,0,0,0,0,0,0,0,0,0.2622,0.2644,0.2663,0.2644,0.2642,0.2611,0.2609,0.2607,0.2572,0.2573,0.2573,0.2574,0.2551,0.255,0.2549,0.253,0,0,0.2544,0.2544,0,0,0,0,0,0,0,0,0.2623,0.2622,0.2647,0.2645,0.2643,0.2604,0.2594,0.2585,0.2572,0.2592,0.2574,0.2574,0.2575,0.2572,0.2551,0.2529,0.2528,0.2544,0.2543,0.2543,0.2542,0,0,0,0,0,0,0,0.2625,0.2623,0.2636,0.2647,0.2645,0.2607,0.2605,0.2591,0.2577,0.259,0.2589,0.2593,0.2574,0.2552,0.2551,0.2527,0.2544,0.2543,0.2542,0.2542,0.2553,0.2554,0,0,0,0,0,0,0.2648,0.2625,0.2637,0.2635,0.2641,0.2608,0.2605,0.2611,0.2576,0.2573,0.2593,0.2592,0.2555,0.2552,0.255,0.2608,0.2543,0.2541,0.2541,0.2552,0.2553,0.2554,0,0,0,0,0,0,0.2648,0.265,0.264,0.2633,0.2631,0.2609,0.2615,0.261,0.2616,0.2579,0.2575,0.261,0.2555,0.2552,0.2563,0.2604,0.2541,0.254,0.255,0.2552,0.2554,0.2673,0,0,0,0,0,0,0.2648,0.265,0.267,0.2635,0.2632,0.2638,0.2615,0.2608,0.262,0.2618,0.2592,0.2588,0.2555,0.2566,0.2562,0.2601,0.2538,0.2549,0.2551,0.2553,0.2668,0.2679,0.2688,0,0,0,0,0,0.2647,0.2659,0.2671,0.2674,0.2658,0.2639,0.2633,0.2614,0.2621,0.2623,0.2614,0.2591,0.2576,0.2566,0.2561,0.2601,0.2548,0.2551,0.2553,0.2663,0.2677,0.2688,0,0,0,0,0,0,0.2666,0.2656,0.2669,0.2682,0.2677,0.2636,0.2632,0.2636,0.2628,0.2632,0.2604,0.26,0.2631,0.2593,0.2582,0.2608,0.2559,0.256,0.2644,0.2656,0.2666,0.2675,0.2537,0,0,0,0,0,0.2684,0.2686,0.268,0.2694,0.269,0.2673,0.2669,0.2663,0.265,0.2647,0.2638,0.2627,0.2631,0.2628,0.2617,0.2627,0.2647,0.2648,0.2658,0.2667,0.267,0.2731,0.2748,0.2563,0.2563,0.2563,0,0,0.2686,0.2693,0.2689,0.2699,0.2684,0.2682,0.2669,0.2667,0.2685,0.2647,0.2669,0.267,0.2644,0.2662,0.2671,0.2639,0.2741,0.267,0.2679,0.2676,0.2736,0.2754,0.2771,0.2564,0.2564,0.2564,0,0,0.2684,0.2707,0.27,0.2704,0.2709,0.2702,0.2716,0.2703,0.2714,0.2733,0.2727,0.2755,0.2737,0.274,0.2736,0.2793,0.2802,0.2792,0.2842,0.2903,0.292,0.2934,0.3036,0.3059,0.2786,0.2786,0.2786,0,0.2685,0.2702,0.2697,0.2702,0.2707,0.272,0.2719,0.2734,0.2739,0.2754,0.2753,0.2785,0.2774,0.2817,0.2838,0.2821,0.2868,0.2803,0.292,0.2934,0.2947,0.3048,0.3071,0.2792,0.2792,0.2791,0.279,0,0.2692,0.2702,0.2698,0.2712,0.2715,0.272,0.274,0.277,0.2796,0.2808,0.2871,0.2877,0.2894,0.2907,0.2888,0.2976,0.299,0.2941,0.2897,0.2974,0.3075,0.3097,0.2801,0.2799,0.2797,0.2796,0,0,0.2663,0.2693,0.2689,0.2705,0.2726,0.2727,0.2766,0.2796,0.2844,0.2878,0.2942,0.2972,0.2999,0.2997,0.3009,0.306,0.3215,0.3044,0.3045,0.3162,0.3399,0.3223,0.3231,0.3193,0.3197,0.3199,0.3453,0,0.2661,0.2668,0.2694,0.271,0.2702,0.2744,0.2785,0.2824,0.2866,0.2937,0.2986,0.3054,0.3029,0.3077,0.3124,0.3184,0.327,0.3153,0.3291,0.3296,0.3142,0.3247,0.295,0.3132,0.3475,0.3478,0.3481,0,0.2645,0.2656,0.2668,0.2709,0.2715,0.2757,0.2825,0.2885,0.2977,0.3001,0.3072,0.3121,0.3228,0.3199,0.3358,0.3289,0.3362,0.3408,0.3418,0.3217,0.3158,0.3098,0.3159,0.3518,0.3515,0.3512,0.351,0,0.2596,0.263,0.265,0.2664,0.2723,0.2769,0.2835,0.2909,0.297,0.3092,0.3128,0.3239,0.3322,0.3418,0.3488,0.3456,0.3657,0.3619,0.3548,0.354,0.3289,0.3249,0.3758,0.3758,0.3757,0.3756,0.3756,0,0.257,0.2574,0.2651,0.2662,0.273,0.2784,0.2881,0.2945,0.3055,0.3128,0.32,0.3263,0.3379,0.3483,0.3552,0.3604,0.3714,0.3587,0.3586,0.3323,0.3286,0.3591,0.3568,0.3766,0.3764,0.3762,0.376,0,0.25,0.2544,0.2574,0.2663,0.2709,0.2778,0.2918,0.2977,0.3081,0.3188,0.324,0.3333,0.3452,0.3549,0.3714,0.3666,0.3751,0.3749,0.3445,0.3399,0.3604,0.3585,0.3736,0.3732,0.3728,0.3725,0.3723,0,0.2453,0.2476,0.2578,0.2621,0.2682,0.2792,0.2859,0.2985,0.3058,0.3208,0.3262,0.3398,0.3409,0.3555,0.3556,0.365,0.3739,0.3397,0.3244,0.3614,0.36,0.3586,0.3572,0.302,0.3012,0.3006,0.3,0,0.2387,0.245,0.2472,0.2574,0.2661,0.2732,0.2862,0.2885,0.304,0.3103,0.3172,0.3197,0.3312,0.3199,0.3269,0.3284,0.3341,0.326,0.3757,0.3018,0.2943,0.2927,0.2937,0.2942,0.2947,0.2952,0.2955,0.2957,0.2333,0.2348,0.2416,0.249,0.2584,0.262,0.2618,0.2723,0.2775,0.2801,0.2961,0.2896,0.2929,0.2844,0.2807,0.2805,0.3047,0.2907,0.2927,0.2955,0.2772,0.2687,0.2611,0.2615,0.2618,0.2621,0.2624,0,0.2265,0.2279,0.2332,0.2381,0.2402,0.2519,0.2572,0.25,0.2471,0.2546,0.2562,0.2326,0.2243,0.2332,0.2227,0.223,0.2223,0.2146,0.2109,0.2169,0.2222,0.2,0.1637,0.1634,0.1631,0.1629,0,0,0.2223,0.2205,0.2209,0.2167,0.2219,0.219,0.2167,0.2087,0.2094,0.1965,0.1948,0.2067,0.219,0.1849,0.1831,0.1708,0.1918,0.1642,0.2434,0.2446,0.2494,0.2665,0.2389,0,0,0,0,0]},{"header":{"parameterUnit":"m.s-1","parameterCategory":2,"la1":30.2991,"la2":30.254,"lo1":-89.0895,"lo2":-89.0444,"dy":0.0017,"dx":0.0017,"nx":28,"ny":28,"refTime":"2024-09-02T03:00:00:Z","depth":"2","parameterNumber":3,"parameterNumberName":"V-component_of_CURRENTS"},"data":[0,0,0,0,0,0,0,0,0,0,0,0,0,0,0,0,0,0,0,0,0,0,0,0,0,0,0,0,0,0,0,0,0,0,0,0,0,0,0,0,0,0,0,0,0,0,0,0,0,0,0,0,0,0,0,0,0,0,0.0125,0.0125,0,0.0099,0.0098,0.0098,0.0095,0.0095,0.0096,0.0096,0.0083,0.0083,0.0082,0,0,0,0,0,0,0,0,0,0,0,0,0,0.0139,0.0139,0.0125,0.0125,0.0124,0.0099,0.0098,0.0098,0.0095,0.0095,0.0096,0.0096,0.0083,0.0083,0.0082,0,0,0,0,0,0,0,0,0,0,0,0,0,0.0126,0.0139,0.0126,0.0119,0.0118,0.0099,0.0098,0.0098,0.0095,0.0095,0.0096,0.0096,0.0083,0.0083,0.0082,0.0074,0,0,0.008,0.008,0,0,0,0,0,0,0,0,0.0127,0.0126,0.012,0.0119,0.0118,0.0099,0.0098,0.009,0.0095,0.0106,0.0096,0.0096,0.0088,0.0087,0.0084,0.0074,0.0073,0.008,0.0079,0.0079,0.0079,0,0,0,0,0,0,0,0.0128,0.0127,0.0117,0.012,0.0118,0.0104,0.0104,0.0097,0.0098,0.0105,0.0104,0.0098,0.0088,0.0085,0.0084,0.0073,0.008,0.0079,0.0079,0.0079,0.0059,0.0059,0,0,0,0,0,0,0.0129,0.0128,0.0117,0.0116,0.0121,0.0104,0.0103,0.0106,0.0098,0.0096,0.0098,0.0098,0.0086,0.0085,0.0083,0.0084,0.0079,0.0079,0.0078,0.0059,0.0059,0.0059,0,0,0,0,0,0,0.013,0.0129,0.0118,0.0119,0.0117,0.0104,0.0107,0.0106,0.0102,0.0092,0.0091,0.0096,0.0086,0.0084,0.008,0.0083,0.0078,0.0078,0.006,0.0059,0.0059,0.008,0,0,0,0,0,0,0.0131,0.013,0.013,0.012,0.0117,0.0115,0.0107,0.0105,0.0097,0.0097,0.009,0.0089,0.0086,0.0081,0.0079,0.0082,0.0077,0.006,0.0059,0.0059,0.0079,0.008,0.0081,0,0,0,0,0,0.0131,0.0138,0.0131,0.0129,0.0119,0.0115,0.0113,0.0105,0.0097,0.0101,0.0092,0.0089,0.0078,0.008,0.0078,0.0081,0.006,0.0059,0.0059,0.0079,0.008,0.0081,0,0,0,0,0,0,0.0144,0.0137,0.013,0.0133,0.0125,0.0114,0.0114,0.0104,0.0099,0.01,0.0088,0.0087,0.0081,0.0077,0.008,0.0074,0.0068,0.0067,0.0083,0.0085,0.0086,0.0116,0.0077,0,0,0,0,0,0.0146,0.0149,0.0138,0.014,0.0137,0.0123,0.0118,0.0114,0.0107,0.0105,0.0095,0.0086,0.0078,0.0079,0.007,0.007,0.0071,0.0069,0.007,0.0071,0.0094,0.0086,0.0089,0.0058,0.0058,0.0058,0,0,0.015,0.0146,0.0148,0.0142,0.0136,0.0144,0.0122,0.0121,0.0129,0.0104,0.0109,0.0087,0.0076,0.0075,0.0073,0.0074,0.0079,0.0071,0.0072,0.0095,0.0087,0.009,0.0093,0.0058,0.0058,0.0058,0,0,0.0169,0.0159,0.0172,0.017,0.0163,0.0156,0.0156,0.0144,0.0141,0.0137,0.0119,0.0102,0.009,0.0085,0.0081,0.0082,0.0079,0.0074,0.0112,0.0103,0.0106,0.0109,0.0109,0.0111,0.0081,0.0081,0.0081,0,0.0179,0.0191,0.0173,0.0188,0.0195,0.0165,0.0187,0.0177,0.0164,0.0169,0.0144,0.0121,0.0099,0.0108,0.0105,0.0087,0.0086,0.0108,0.0106,0.0108,0.0111,0.011,0.0113,0.0082,0.0082,0.0081,0.0081,0,0.0209,0.0219,0.0227,0.0239,0.0243,0.0255,0.0244,0.0243,0.0225,0.0215,0.0206,0.0167,0.0161,0.0138,0.0122,0.0129,0.0124,0.0102,0.0106,0.0115,0.0114,0.0116,0.0083,0.0083,0.0082,0.0082,0,0,0.0244,0.0249,0.0255,0.0273,0.0275,0.0287,0.03,0.0311,0.0332,0.0289,0.0314,0.0262,0.0234,0.0228,0.0192,0.018,0.0177,0.0155,0.0154,0.0162,0.0169,0.0129,0.0127,0.0155,0.0155,0.0156,0.0159,0,0.0279,0.0321,0.0311,0.0355,0.0381,0.0367,0.0389,0.0393,0.0384,0.0396,0.0344,0.0347,0.0271,0.027,0.0239,0.0197,0.0185,0.0179,0.0154,0.0154,0.0122,0.0129,0.0144,0.0146,0.0161,0.0162,0.0162,0,0.0318,0.0345,0.0394,0.0431,0.0442,0.0462,0.0505,0.051,0.0513,0.0518,0.0496,0.0459,0.0429,0.0364,0.0293,0.0294,0.0241,0.02,0.0198,0.0163,0.0118,0.0139,0.0149,0.0166,0.0166,0.0165,0.0165,0,0.0367,0.0405,0.0448,0.0461,0.0494,0.0521,0.0531,0.055,0.0585,0.0593,0.0636,0.0568,0.0564,0.0473,0.0361,0.0338,0.0292,0.0246,0.0164,0.0161,0.0171,0.0168,0.0214,0.0214,0.0214,0.0214,0.0214,0,0.0413,0.0451,0.0476,0.0505,0.0569,0.0568,0.0632,0.0644,0.069,0.0758,0.0694,0.0747,0.0594,0.0539,0.0415,0.0297,0.0328,0.0185,0.0161,0.0176,0.0173,0.0189,0.0186,0.0214,0.0214,0.0214,0.0214,0,0.0454,0.0467,0.0523,0.0571,0.0592,0.063,0.0704,0.0765,0.0794,0.0887,0.0905,0.0896,0.0822,0.0662,0.053,0.0387,0.0267,0.0222,0.0249,0.0228,0.013,0.0128,0.0132,0.0131,0.013,0.0129,0.0128,0,0.0478,0.0509,0.0571,0.0618,0.0641,0.0702,0.0769,0.0815,0.0893,0.0987,0.1056,0.1025,0.1018,0.0793,0.0548,0.0327,0.0293,0.0189,0.0132,0.0146,0.0123,0.0123,0.0123,0.0157,0.0157,0.0157,0.0156,0,0.0531,0.0544,0.0593,0.0685,0.0761,0.0849,0.094,0.1036,0.1108,0.1192,0.1298,0.1297,0.109,0.0863,0.0545,0.0388,0.0211,0.0172,0.0202,0.0163,0.0167,0.0145,0.0145,0.0153,0.0153,0.0153,0.0154,0.0154,0.0571,0.0611,0.0675,0.0765,0.086,0.1005,0.1093,0.121,0.1345,0.1455,0.1452,0.1417,0.1165,0.0742,0.0488,0.0202,0.0214,0.0093,0.0096,0.0099,0.0089,0.0089,0.0059,0.0059,0.0059,0.0059,0.0059,0,0.0621,0.0671,0.0757,0.0879,0.1004,0.1039,0.1218,0.1312,0.1473,0.152,0.1558,0.1304,0.1061,0.0768,0.0352,0.0107,0.0091,0.0018,0.0058,0.0063,0.0067,0.0056,0.0017,0.0017,0.0016,0.0015,0,0,0.0651,0.0732,0.0777,0.0981,0.108,0.124,0.1349,0.1475,0.1531,0.1572,0.1505,0.1432,0.1106,0.079,0.0478,0.0249,0.0204,0.0193,0.0252,0.0342,0.0349,0.0136,0.0127,0,0,0,0,0]}],[{"header":{"parameterUnit":"m.s-1","parameterCategory":2,"la1":30.2991,"la2":30.254,"lo1":-89.0895,"lo2":-89.0444,"dy":0.0017,"dx":0.0017,"nx":28,"ny":28,"refTime":"2024-09-02T03:00:00:Z","depth":"4","parameterNumber":2,"parameterNumberName":"U-component_of_CURRENTS"},"data":[0,0,0,0,0,0,0,0,0,0,0,0,0,0,0,0,0,0,0,0,0,0,0,0,0,0,0,0,0,0,0,0,0,0,0,0,0,0,0,0,0,0,0,0,0,0,0,0,0,0,0,0,0,0,0,0,0,0,0.1301,0.1301,0,0.1348,0.1349,0.135,0.145,0.1452,0.1454,0.1455,0.1508,0.1508,0.1508,0,0,0,0,0,0,0,0,0,0,0,0,0,0.1271,0.1271,0.1301,0.1301,0.1302,0.1348,0.1349,0.135,0.145,0.1452,0.1454,0.1456,0.1508,0.1508,0.1508,0,0,0,0,0,0,0,0,0,0,0,0,0,0.1301,0.1271,0.1301,0.1354,0.1359,0.1348,0.1349,0.135,0.145,0.1452,0.1455,0.1457,0.1508,0.1508,0.1508,0.1458,0,0,0.1507,0.1507,0,0,0,0,0,0,0,0,0.13,0.1303,0.1346,0.135,0.1356,0.1392,0.1358,0.1385,0.1449,0.142,0.1455,0.1458,0.1465,0.1469,0.1478,0.146,0.1462,0.1507,0.1507,0.1507,0.1507,0,0,0,0,0,0,0,0.1297,0.1301,0.1324,0.1346,0.1352,0.1365,0.1373,0.1363,0.1432,0.1423,0.1429,0.1426,0.1469,0.1478,0.148,0.1463,0.1507,0.1507,0.1507,0.1507,0.1552,0.1553,0,0,0,0,0,0,0.1282,0.1299,0.1323,0.1325,0.1328,0.1364,0.1373,0.1382,0.1432,0.1441,0.1424,0.1431,0.1477,0.148,0.1482,0.1543,0.1507,0.1507,0.1507,0.155,0.1552,0.1553,0,0,0,0,0,0,0.1281,0.1284,0.1321,0.1309,0.1315,0.1362,0.1371,0.1381,0.142,0.1432,0.1443,0.1455,0.1479,0.1483,0.1517,0.1541,0.1507,0.1507,0.1549,0.1551,0.1552,0.1588,0,0,0,0,0,0,0.128,0.1283,0.1299,0.1308,0.1315,0.1331,0.1368,0.138,0.141,0.1421,0.1461,0.1467,0.1482,0.1518,0.1517,0.154,0.1507,0.1547,0.155,0.1552,0.1585,0.159,0.1595,0,0,0,0,0,0.1279,0.128,0.13,0.1303,0.133,0.133,0.1336,0.138,0.1409,0.1425,0.1469,0.1468,0.1533,0.1518,0.1517,0.1541,0.1546,0.1549,0.1552,0.1582,0.1589,0.1595,0,0,0,0,0,0,0.1281,0.129,0.1312,0.132,0.1334,0.1347,0.1366,0.1385,0.1429,0.1455,0.1474,0.1482,0.1527,0.1523,0.1506,0.1563,0.1542,0.1545,0.1566,0.1572,0.1577,0.1576,0.1507,0,0,0,0,0,0.1283,0.1291,0.13,0.1312,0.1321,0.1346,0.1358,0.1384,0.1412,0.1437,0.1469,0.1504,0.1529,0.1544,0.1566,0.1579,0.1596,0.1598,0.1603,0.1608,0.1608,0.1669,0.168,0.1563,0.1563,0.1563,0,0,0.1289,0.1293,0.1302,0.1313,0.1335,0.1348,0.1363,0.1386,0.141,0.143,0.1493,0.1522,0.1538,0.1578,0.1596,0.1582,0.1651,0.1611,0.1615,0.1613,0.1673,0.1685,0.1695,0.1565,0.1564,0.1564,0,0,0.1291,0.131,0.132,0.1331,0.1353,0.1362,0.137,0.1402,0.1438,0.1472,0.1513,0.1559,0.1584,0.1618,0.1629,0.1667,0.168,0.1677,0.1698,0.1757,0.1767,0.1777,0.1814,0.1826,0.1676,0.1677,0.1677,0,0.1303,0.1309,0.1323,0.1335,0.1343,0.137,0.1382,0.1411,0.1457,0.1487,0.1502,0.1583,0.1602,0.1649,0.1679,0.1678,0.1711,0.1671,0.1765,0.1774,0.1783,0.1818,0.1831,0.1679,0.1678,0.1678,0.1678,0,0.1312,0.1323,0.1328,0.1355,0.1369,0.1377,0.1409,0.1447,0.1483,0.1517,0.1584,0.1619,0.1673,0.1684,0.1693,0.1766,0.1769,0.1767,0.1747,0.1797,0.1831,0.1844,0.1681,0.1681,0.168,0.168,0,0,0.1306,0.1328,0.1334,0.1341,0.1375,0.1379,0.1428,0.1465,0.1505,0.1563,0.1619,0.1673,0.1716,0.1732,0.1758,0.1801,0.1894,0.1816,0.1818,0.185,0.2024,0.1883,0.1884,0.192,0.1922,0.1924,0.2023,0,0.1307,0.1319,0.1335,0.1351,0.1353,0.1392,0.1427,0.1478,0.1528,0.1597,0.1651,0.1721,0.1726,0.1771,0.1817,0.1882,0.193,0.1866,0.1973,0.1976,0.1843,0.1894,0.1932,0.2032,0.2035,0.2037,0.2039,0,0.1302,0.1304,0.1318,0.1331,0.1341,0.1369,0.1425,0.1462,0.1563,0.1611,0.1695,0.1756,0.1851,0.1844,0.197,0.1937,0.1989,0.2021,0.2026,0.1889,0.1858,0.1973,0.2062,0.206,0.2059,0.2057,0.2056,0,0.1263,0.1283,0.1286,0.1295,0.1329,0.1359,0.1395,0.1481,0.152,0.1651,0.1721,0.1816,0.1898,0.1972,0.2058,0.2038,0.2181,0.2159,0.2073,0.2064,0.2146,0.2135,0.2248,0.2248,0.2248,0.2248,0.2247,0,0.1225,0.1228,0.1275,0.1273,0.1288,0.1341,0.138,0.1442,0.1542,0.1611,0.1746,0.1818,0.1943,0.2041,0.209,0.2119,0.2218,0.2082,0.2083,0.2157,0.2147,0.2155,0.2143,0.2251,0.2251,0.225,0.2249,0,0.1169,0.1201,0.1201,0.1248,0.1263,0.1287,0.1359,0.1391,0.1522,0.1624,0.1686,0.1853,0.198,0.2079,0.22,0.2153,0.2197,0.2187,0.2263,0.2267,0.203,0.2018,0.2085,0.208,0.2077,0.2074,0.2072,0,0.1133,0.1127,0.1171,0.1173,0.1197,0.1236,0.1258,0.1366,0.1401,0.1629,0.1668,0.186,0.1963,0.2019,0.2116,0.2183,0.2166,0.2165,0.2079,0.202,0.2015,0.2009,0.2003,0.2066,0.2065,0.2064,0.2063,0,0.1058,0.1092,0.1098,0.1098,0.1125,0.1132,0.1181,0.1202,0.1351,0.1495,0.1625,0.1731,0.1863,0.1935,0.2007,0.205,0.2144,0.2128,0.2135,0.2054,0.1999,0.1996,0.1994,0.2051,0.2053,0.2054,0.2055,0,0.1015,0.0999,0.1016,0.1011,0.1028,0.1021,0.1062,0.1115,0.1177,0.1426,0.1459,0.169,0.1834,0.1869,0.1937,0.1962,0.1928,0.1856,0.1876,0.189,0.178,0.1678,0.1639,0,0,0,0,0,0.0964,0.0928,0.0913,0.0899,0.0913,0.0933,0.0993,0.1047,0.1207,0.1255,0.1351,0.1478,0.1614,0.1705,0.1694,0.1841,0.1923,0.1818,0.1845,0.1985,0.1999,0.1886,0,0,0,0,0,0,0.0925,0.0909,0.0885,0.0811,0.0785,0.0796,0.0847,0.0964,0.097,0.1155,0.1222,0.1376,0.1505,0.1613,0.1667,0.1694,0.1677,0.1936,0.1932,0.1977,0.199,0.2001,0.189,0,0,0,0,0]},{"header":{"parameterUnit":"m.s-1","parameterCategory":2,"la1":30.2991,"la2":30.254,"lo1":-89.0895,"lo2":-89.0444,"dy":0.0017,"dx":0.0017,"nx":28,"ny":28,"refTime":"2024-09-02T03:00:00:Z","depth":"4","parameterNumber":3,"parameterNumberName":"V-component_of_CURRENTS"},"data":[0,0,0,0,0,0,0,0,0,0,0,0,0,0,0,0,0,0,0,0,0,0,0,0,0,0,0,0,0,0,0,0,0,0,0,0,0,0,0,0,0,0,0,0,0,0,0,0,0,0,0,0,0,0,0,0,0,0,0.0184,0.0183,0,0.0167,0.0167,0.0167,0.0162,0.0162,0.0162,0.0162,0.0175,0.0175,0.0175,0,0,0,0,0,0,0,0,0,0,0,0,0,0.0179,0.0179,0.0184,0.0183,0.0183,0.0167,0.0167,0.0167,0.0162,0.0162,0.0162,0.0162,0.0175,0.0175,0.0175,0,0,0,0,0,0,0,0,0,0,0,0,0,0.0174,0.0179,0.0184,0.0178,0.0178,0.0167,0.0167,0.0167,0.0162,0.0162,0.0162,0.0162,0.0175,0.0175,0.0176,0.0177,0,0,0.0177,0.0177,0,0,0,0,0,0,0,0,0.0174,0.0174,0.018,0.0179,0.0178,0.0166,0.017,0.0171,0.0162,0.0168,0.0162,0.0162,0.0174,0.0175,0.0172,0.0177,0.0178,0.0177,0.0177,0.0177,0.0177,0,0,0,0,0,0,0,0.0175,0.0175,0.0178,0.0179,0.0178,0.0166,0.0166,0.017,0.0172,0.0168,0.0167,0.0165,0.0174,0.0171,0.0172,0.0178,0.0177,0.0177,0.0178,0.0178,0.0178,0.0178,0,0,0,0,0,0,0.0177,0.0175,0.0178,0.0177,0.0176,0.0166,0.0166,0.017,0.0171,0.0171,0.0165,0.0165,0.017,0.0172,0.0173,0.0181,0.0177,0.0178,0.0178,0.0178,0.0178,0.0178,0,0,0,0,0,0,0.0178,0.0178,0.0179,0.0175,0.0174,0.0166,0.0171,0.017,0.0172,0.0169,0.0169,0.0168,0.0171,0.0172,0.0176,0.0181,0.0178,0.0178,0.0179,0.0178,0.0178,0.0193,0,0,0,0,0,0,0.0178,0.0179,0.0185,0.0175,0.0174,0.0178,0.0171,0.017,0.0169,0.0169,0.0172,0.0173,0.0171,0.0175,0.0176,0.0182,0.0179,0.0179,0.0178,0.0178,0.0193,0.0193,0.0193,0,0,0,0,0,0.0178,0.0188,0.0186,0.0186,0.0183,0.0179,0.0177,0.0172,0.017,0.0173,0.0169,0.0173,0.0172,0.0175,0.0177,0.0182,0.0179,0.0179,0.0178,0.0193,0.0193,0.0193,0,0,0,0,0,0,0.0192,0.0188,0.0185,0.0195,0.0189,0.0178,0.018,0.0175,0.0174,0.0176,0.0173,0.0173,0.0176,0.0175,0.0178,0.0179,0.0175,0.0175,0.0186,0.0186,0.0187,0.0206,0.0179,0,0,0,0,0,0.0198,0.0203,0.0195,0.0203,0.0201,0.0191,0.0189,0.0186,0.0181,0.0181,0.0179,0.0177,0.0173,0.0177,0.0173,0.018,0.0168,0.0182,0.0182,0.0183,0.0198,0.017,0.0169,0.0176,0.0176,0.0176,0,0,0.0205,0.0203,0.0207,0.0206,0.0201,0.0207,0.0191,0.0191,0.0199,0.0183,0.0194,0.0178,0.0173,0.0174,0.0176,0.0178,0.0172,0.0182,0.0183,0.0198,0.0169,0.0168,0.0168,0.0175,0.0175,0.0175,0,0,0.0221,0.0221,0.023,0.0229,0.0225,0.022,0.0222,0.0213,0.0212,0.0214,0.0201,0.0189,0.019,0.0183,0.0181,0.0182,0.0171,0.0179,0.0204,0.0175,0.0175,0.0174,0.0149,0.0146,0.0184,0.0184,0.0184,0,0.0231,0.0246,0.0232,0.0241,0.025,0.0229,0.0247,0.024,0.0233,0.0238,0.0222,0.0206,0.0195,0.0198,0.0194,0.0184,0.0167,0.0204,0.0177,0.0176,0.0175,0.0149,0.0146,0.0184,0.0184,0.0184,0.0184,0,0.0254,0.0268,0.0273,0.0282,0.0286,0.0298,0.029,0.0292,0.0284,0.0276,0.0269,0.0239,0.0235,0.0218,0.0209,0.0201,0.019,0.0176,0.0178,0.0175,0.0148,0.0144,0.0185,0.0185,0.0185,0.0185,0,0,0.0275,0.0289,0.0292,0.0313,0.0315,0.0325,0.0337,0.0347,0.0363,0.0331,0.0345,0.031,0.0287,0.0283,0.0256,0.0228,0.0195,0.0205,0.0204,0.0186,0.0134,0.0116,0.011,0.0174,0.0174,0.0174,0.0114,0,0.0302,0.0335,0.0335,0.0375,0.0394,0.0391,0.0409,0.0413,0.0404,0.0407,0.0363,0.0362,0.0314,0.0311,0.0272,0.0218,0.0188,0.0213,0.0136,0.0134,0.0122,0.0106,0.0173,0.0111,0.011,0.0109,0.0109,0,0.0323,0.0349,0.0392,0.0435,0.0445,0.047,0.0505,0.0518,0.051,0.0501,0.0476,0.0442,0.0402,0.0358,0.026,0.0278,0.0215,0.0162,0.0158,0.014,0.011,0.0115,0.0102,0.0102,0.0103,0.0103,0.0104,0,0.0346,0.0389,0.0432,0.0446,0.0486,0.0518,0.0545,0.0553,0.0575,0.0566,0.0574,0.0508,0.0484,0.0391,0.0277,0.0272,0.0163,0.014,0.0064,0.0062,0.009,0.0091,0.0075,0.0075,0.0075,0.0076,0.0076,0,0.037,0.0406,0.0454,0.048,0.0547,0.0563,0.0626,0.0634,0.0655,0.0685,0.063,0.0624,0.0491,0.0411,0.0301,0.0169,0.0178,0.0071,0.0045,0.0096,0.0098,0.0087,0.0089,0.0073,0.0074,0.0074,0.0075,0,0.0377,0.0405,0.0462,0.0528,0.0556,0.0606,0.0687,0.0729,0.0741,0.0777,0.078,0.0711,0.0602,0.0464,0.0308,0.0208,0.0082,0.0036,0.0106,0.0085,-0.0006,-0.0002,-0.0054,-0.0055,-0.0056,-0.0057,-0.0058,0,0.0382,0.041,0.0495,0.0538,0.0576,0.0657,0.0714,0.0763,0.0802,0.0824,0.0836,0.0759,0.0692,0.0463,0.0307,0.0097,0.0062,-0.0002,-0.0012,0.0001,-0.0019,-0.0014,-0.0009,-0.0059,-0.0059,-0.006,-0.006,0,0.04,0.0427,0.0475,0.0561,0.0637,0.0724,0.0806,0.0843,0.0896,0.0908,0.0882,0.0775,0.065,0.046,0.03,0.0146,0.0038,-0.0013,-0.0012,-0.0022,-0.0006,-0.0023,-0.0018,-0.0063,-0.0063,-0.0062,-0.0062,0,0.0411,0.0444,0.0506,0.0583,0.0675,0.0769,0.0817,0.0871,0.0916,0.0933,0.0917,0.0797,0.0718,0.0486,0.0336,0.0184,0.0138,0.0082,0.0077,0.0079,0.0127,0.0168,0.0146,0,0,0,0,0,0.0422,0.046,0.0527,0.0617,0.0705,0.0768,0.0866,0.0907,0.0956,0.0943,0.0934,0.0819,0.0604,0.0506,0.0351,0.0305,0.0105,0.0116,0.0037,-0.0081,-0.0077,-0.0046,0,0,0,0,0,0,0.0431,0.0488,0.0524,0.0633,0.0695,0.0809,0.0881,0.0919,0.0906,0.0921,0.0805,0.0762,0.0545,0.0686,0.0339,0.0295,0.022,0.0017,0.0013,-0.0083,-0.008,-0.0077,-0.0043,0,0,0,0,0]}]]